Weather History for Astoria, OR

Change the Weather History Date:

Wednesday, February 13, 2013

  Actual Average Record
Temperature  
Mean Temperature 46 °F 44 °F  
Max Temperature 50 °F 52 °F 64 °F (1931)
Min Temperature 42 °F 37 °F 21 °F (1949)
Degree Days  
Heating Degree Days 19 21  
Month to date heating degree days 260 273  
Since 1 July heating degree days 3070 3038  
Cooling Degree Days 0 0  
Month to date cooling degree days 0 0  
Year to date cooling degree days 0 0  
Moisture  
Dew Point 43 °F    
Average Humidity 84    
Maximum Humidity 96    
Minimum Humidity 71    
Precipitation  
Precipitation 0.12 in 0.25 in 2.31 in (1994)
Month to date precipitation 1.51 3.48  
Year to date precipitation 10.61 13.68  
Snow  
Snow 0.00 in - - ()
Month to date snowfall 0.0  
Snow Depth 0.00 in    
Sea Level Pressure  
Sea Level Pressure 30.45 in    
Wind  
Wind Speed 5 mph (WSW)    
Max Wind Speed 15 mph    
Max Gust Speed 20 mph    
Visibility 7 miles    
Events Rain    
T = Trace of Precipitation, MM = Missing Value Source: NWS Daily Summary

Daily Weather History Graph

Daily Weather History Graph

Search for Another Location

Airport:

Trip Planner

Search our weather history database for the weather conditions in past years. The results will help you decide how hot, cold, wet, or windy it might be!

Date:

Astronomy

Feb. 13, 2013 Rise Set
Actual Time 7:21 AM PST 5:39 PM PST
Civil Twilight 6:50 AM PST 6:10 PM PST
Nautical Twilight 6:14 AM PST 6:45 PM PST
Astronomical Twilight 5:40 AM PST 7:20 PM PST
Moon 8:37 AM PST (2/13) 10:05 PM PST (2/13)
Length of Visible Light 11h 20m
Length of Day
10h 18m
Waxing Crescent, 14% of the Moon is Illuminated
Feb 13
Waxing Crescent
Feb 17
First Quarter
Feb 25
Full
Mar 4
Last Quarter
Mar 11
New

Hourly Weather History & Observations

Time (PST) Temp. Windchill Dew Point Humidity Pressure Visibility Wind Dir Wind Speed Gust Speed Precip Events Conditions
12:18 AM 48.2 °F - 46.4 °F 93% 30.42 in 2.0 mi SW 11.5 mph 18.4 mph 0.00 in Rain Light Rain
12:30 AM 48.2 °F - 46.4 °F 93% 30.42 in 1.8 mi SW 8.1 mph 17.3 mph 0.02 in Rain Rain
12:41 AM 48.2 °F - 46.4 °F 93% 30.41 in 2.5 mi SW 10.4 mph - 0.04 in Rain Light Rain
12:55 AM 48.0 °F - 46.9 °F 96% 30.42 in 3.0 mi SW 9.2 mph 17.3 mph 0.05 in Rain Light Rain
1:07 AM 48.2 °F - 46.4 °F 93% 30.42 in 2.5 mi SW 10.4 mph - 0.00 in Rain Light Rain
1:28 AM 48.2 °F - 46.4 °F 93% 30.41 in 3.0 mi SW 9.2 mph 16.1 mph 0.02 in Rain Light Rain
1:55 AM 48.0 °F - 46.9 °F 96% 30.41 in 3.0 mi SW 11.5 mph - 0.02 in   Overcast
2:04 AM 48.2 °F - 46.4 °F 93% 30.42 in 2.5 mi WSW 10.4 mph - 0.00 in Rain Light Rain
2:24 AM 48.2 °F - 46.4 °F 93% 30.42 in 1.8 mi WSW 9.2 mph - 0.02 in Rain Light Rain
2:35 AM 48.2 °F - 46.4 °F 93% 30.42 in 2.0 mi West 11.5 mph - 0.02 in Rain Light Rain
2:55 AM 46.9 °F - 46.0 °F 97% 30.42 in 2.5 mi NW 12.7 mph - 0.03 in Rain Light Rain
3:14 AM 46.4 °F 41.5 °F 44.6 °F 93% 30.42 in 4.0 mi NW 10.4 mph - 0.01 in   Overcast
3:44 AM 46.4 °F 41.9 °F 44.6 °F 93% 30.42 in 2.5 mi NW 9.2 mph - 0.01 in Rain Light Rain
3:55 AM 46.0 °F 41.9 °F 44.1 °F 93% 30.42 in 2.5 mi NW 8.1 mph - 0.02 in Rain Light Rain
4:10 AM 46.4 °F 42.4 °F 44.6 °F 93% 30.42 in 3.0 mi WNW 8.1 mph - 0.00 in Rain Light Rain
4:41 AM 44.6 °F 43.1 °F 44.6 °F 100% 30.42 in 9.0 mi West 3.5 mph - 0.00 in   Overcast
4:55 AM 45.0 °F 42.6 °F 43.0 °F 93% 30.43 in 10.0 mi West 4.6 mph - 0.00 in   Overcast
5:55 AM 45.0 °F 42.6 °F 42.1 °F 90% 30.44 in 10.0 mi West 4.6 mph - N/A   Overcast
6:55 AM 44.1 °F - 42.1 °F 93% 30.44 in 10.0 mi Calm Calm - N/A   Overcast
7:55 AM 45.0 °F 42.6 °F 41.0 °F 86% 30.45 in 10.0 mi SW 4.6 mph - N/A   Mostly Cloudy
8:55 AM 45.0 °F 42.6 °F 42.1 °F 90% 30.47 in 10.0 mi WSW 4.6 mph - N/A   Overcast
9:55 AM 46.9 °F - 43.0 °F 86% 30.48 in 10.0 mi WSW 3.5 mph - N/A   Overcast
10:55 AM 48.0 °F - 42.1 °F 80% 30.49 in 10.0 mi WSW 6.9 mph - N/A   Overcast
11:35 AM 48.2 °F - 42.8 °F 82% 30.48 in 10.0 mi West 6.9 mph - N/A   Mostly Cloudy
11:55 AM 48.9 °F - 41.0 °F 74% 30.48 in 10.0 mi WNW 8.1 mph - N/A   Mostly Cloudy
12:29 PM 50.0 °F - 41.0 °F 71% 30.48 in 10.0 mi WSW 8.1 mph - N/A   Overcast
12:55 PM 48.9 °F - 41.0 °F 74% 30.48 in 10.0 mi West 9.2 mph - N/A   Overcast
1:55 PM 48.9 °F - 39.9 °F 71% 30.47 in 10.0 mi West 5.8 mph - N/A   Overcast
2:55 PM 50.0 °F - 41.0 °F 71% 30.47 in 10.0 mi West 6.9 mph - N/A   Overcast
3:55 PM 48.9 °F - 41.0 °F 74% 30.47 in 10.0 mi WSW 5.8 mph - N/A   Mostly Cloudy
4:04 PM 48.2 °F - 41.0 °F 76% 30.47 in 10.0 mi West 5.8 mph - N/A   Mostly Cloudy
4:14 PM 48.2 °F - 39.2 °F 71% 30.47 in 10.0 mi West 6.9 mph - N/A   Scattered Clouds
4:55 PM 48.0 °F - 41.0 °F 77% 30.48 in 10.0 mi West 8.1 mph - N/A   Mostly Cloudy
5:07 PM 48.2 °F - 41.0 °F 76% 30.47 in 10.0 mi West 5.8 mph - N/A   Mostly Cloudy
5:47 PM 46.4 °F - 41.0 °F 81% 30.47 in 10.0 mi Calm Calm - N/A   Mostly Cloudy
5:55 PM 46.9 °F - 41.0 °F 80% 30.47 in 10.0 mi Calm Calm - N/A   Mostly Cloudy
6:19 PM 46.4 °F - 41.0 °F 81% 30.47 in 10.0 mi Calm Calm - N/A   Mostly Cloudy
6:55 PM 45.0 °F 43.5 °F 42.1 °F 90% 30.48 in 10.0 mi WSW 3.5 mph - N/A   Overcast
7:55 PM 43.0 °F - 39.9 °F 89% 30.49 in 10.0 mi Calm Calm - N/A   Mostly Cloudy
8:55 PM 43.0 °F 41.3 °F 41.0 °F 93% 30.49 in 10.0 mi SE 3.5 mph - N/A   Overcast
9:55 PM 43.0 °F - 41.0 °F 93% 30.50 in 10.0 mi Calm Calm - N/A   Overcast
10:55 PM 43.0 °F 41.3 °F 41.0 °F 93% 30.51 in 7.0 mi ENE 3.5 mph - N/A   Overcast
11:55 PM 42.1 °F - 39.9 °F 92% 30.51 in 9.0 mi Calm Calm - N/A   Partly Cloudy